Tracking 35274 objects as of 10-Sep-2026
HD Live streaming from Space Station
objects crossing your sky now

PROMETHEUS 2-8


PROMETHEUS 2-8 is no longer on orbit


NORAD ID: 47345
Int'l Code: 2021-002N
Launch date: January 17, 2021
Source: United States (US)
Launch site: Pegasus launched from Western Range Air Space (WRAS)
Decay date: 2023-04-27
Your satellite tracking list
Your tracking list is empty




NASA's NSSDC Master Catalog

Two Line Element Set (TLE):
1 47345U 21002N   23116.76730452  .05146388  96755-5  20891-2 0  9999
2 47345  60.6497 220.6413 0011609 319.4891  40.5378 16.22737801126718
Source of the keplerian elements: AFSPC